Showing default

SENTINEL-6B, 66514

Orbit data source: Space-Track

SENTINEL-6B, 66514 is an ESA payload satellite in LEO that was launched on Mon, 17 Nov 2025 UTC via an FALCON 9 launch vehicle from the Air Force Western Test Range (AFWTR). Payload-class satellites include a variety of spacecraft equipped with specific instruments for various scientific and technological missions. These include communications satellites like Starlink; space stations such as the ISS; scientific satellites like the Hubble; Earth observation satellites from companies like Planet Labs, Umbra, and HawkEye 360; GPS; miniature CubeSats for education and research; and military/defense satellites.

Loading next visibility...
Identifier
66514, 2025-264A
Orbit
LEO
Country
Flag of ESAESA
Related business
Manufacturer
Airbus/DF
Mission
Operational Civil Earth Obs Sci
Bus & Motor
FLEXBUS, AOCS 2X40MN
Mass
1,140 kg wet, ~940 kg dry
Launch date (UTC)
2025-11-17 (7 months ago)
Launch vehicle
FALCON 9
Launch site
Air Force Western Test Range (AFWTR)
Object type
Payload
Rocket body
Debris
Shape & HBR
Hex Box, 2.0 m
Radar Cross Section
22.155 m², Large (>1 m²)

Expand to show TLE details & history
Last TLE update: 13 hours ago

TLE from 13 hours ago
0 SENTINEL-6B
1 66514U 25264A   26171.28694495 -.00000044  00000-0  73559-4 0  9997
2 66514  66.0399 128.7401 0007997 269.1256  90.8843 12.80929983 27566
Epoch: 2026-06-20T06:53Z
TLE epoch observation values (Epoch: 2026-06-20T06:53:12.043Z)
Latitude
-0.00002°
Longitude
116.93617°
Altitude
1,339.743 km
Speed
7.188 km/s
True Right ascension
08h 34m 57s
True Declination
0° 00' 00"
Sunlit
Object was in daylight at epoch
Visualization orbit readout
Latitude
Unknown
Longitude
Unknown
Altitude
Unknown
Speed
Unknown
Apparent Right ascension
Unknown
Apparent Declination
Unknown
Sunlit
N/A
Visualization observer readout
Local Sidereal Time
07:14:24
Azimuth
Unknown
Elevation
Unknown
Doppler factor
Unknown
Orbital elements
Apogee altitude
1,342.465 km
Perigee altitude
1,330.127 km
Semi-major axis
7,714.433 km
Eccentricity
0.0008
Inclination
66.0399°
RAAN
128.7401°
Arg. of periapsis
269.1256°
True anomaly
90.97593°
Mean anomaly
90.8843°
Eccentric anomaly
90.93011°
Mean motion
3.20322 °/min
Orbital period
112.39 mins
BSTAR
0.000073559
Loading maneuver chart data...
Computing Atmospheric mass density...
Loading historical data...
Loading historical data...
Loading historical data...
Loading historical data...
Loading historical data...
Loading historical data...
Loading historical data...
Other satellites on launch #264 in the year 2025 (2025-11-17 UTC)

Documentation

Showing up to 5 results
|